[[{"header":{"parameterUnit":"m.s-1","parameterCategory":1,"la1":30.2991,"la2":30.254,"lo1":-89.0895,"lo2":-89.0444,"dy":0.0017,"dx":0.0017,"nx":28,"ny":28,"refTime":"2025-04-23T09:00:00:Z","depth":0,"parameterNumber":2,"parameterNumberName":"U-component_of_WINDS"},"data":[0,0,0,0,0,0,0,0,0,0,0,0,0,0,0,0,0,0,0,0,0,0,0,0,0,0,0,0,0,0,0,0,0,0,0,0,0,0,0,0,0,0,0,0,0,0,0,0,0,0,0,0,0,0,0,0,0,0,-3.4588,-3.4589,0,-3.4603,-3.4603,-3.4604,-3.4567,-3.4565,-3.4564,-3.4563,-3.4577,-3.4578,-3.458,0,0,0,0,0,0,0,0,0,0,0,0,0,-3.4527,-3.4529,-3.4588,-3.4589,-3.4589,-3.4603,-3.4603,-3.4604,-3.4567,-3.4565,-3.4564,-3.4563,-3.4576,-3.4578,-3.458,0,0,0,0,0,0,0,0,0,0,0,0,0,-3.4549,-3.4529,-3.4588,-3.4572,-3.4571,-3.4603,-3.4603,-3.4604,-3.4567,-3.4565,-3.4564,-3.4562,-3.4576,-3.4578,-3.458,-3.4629,0,0,-3.4587,-3.4588,0,0,0,0,0,0,0,0,-3.4548,-3.4551,-3.4574,-3.4573,-3.4572,-3.4581,-3.4587,-3.4612,-3.4567,-3.4568,-3.4563,-3.4561,-3.458,-3.4581,-3.4588,-3.4629,-3.463,-3.4587,-3.4588,-3.4589,-3.459,0,0,0,0,0,0,0,-3.4547,-3.4551,-3.4594,-3.4575,-3.4573,-3.4564,-3.4565,-3.4592,-3.4584,-3.4568,-3.4566,-3.4568,-3.4579,-3.4586,-3.4588,-3.463,-3.4587,-3.4589,-3.459,-3.4591,-3.4711,-3.4713,0,0,0,0,0,0,-3.4547,-3.455,-3.4594,-3.4595,-3.4555,-3.4566,-3.4568,-3.458,-3.4583,-3.4582,-3.4569,-3.4566,-3.4583,-3.4586,-3.4588,-3.4644,-3.4589,-3.4591,-3.4593,-3.4709,-3.4712,-3.4714,0,0,0,0,0,0,-3.4546,-3.4552,-3.4593,-3.4571,-3.4576,-3.4569,-3.4583,-3.4581,-3.4588,-3.4584,-3.4582,-3.4578,-3.4582,-3.4585,-3.4619,-3.4644,-3.4592,-3.4594,-3.4707,-3.471,-3.4713,-3.4757,0,0,0,0,0,0,-3.4544,-3.4551,-3.457,-3.4572,-3.4577,-3.4623,-3.4585,-3.4583,-3.4592,-3.4588,-3.4592,-3.4591,-3.4581,-3.4616,-3.4621,-3.4646,-3.4596,-3.4705,-3.4708,-3.4712,-3.4753,-3.4761,-3.4767,0,0,0,0,0,-3.4542,-3.4581,-3.4571,-3.4576,-3.46,-3.4625,-3.4628,-3.4616,-3.4595,-3.4613,-3.461,-3.4591,-3.4641,-3.462,-3.4625,-3.4651,-3.4703,-3.4707,-3.4712,-3.475,-3.4759,-3.4767,0,0,0,0,0,0,-3.4581,-3.4581,-3.4569,-3.461,-3.4618,-3.4619,-3.4641,-3.4626,-3.464,-3.4635,-3.4619,-3.4621,-3.4657,-3.4658,-3.4634,-3.4698,-3.4669,-3.4674,-3.4696,-3.4705,-3.4712,-3.4709,-3.4598,0,0,0,0,0,-3.4594,-3.4615,-3.4614,-3.465,-3.4655,-3.4648,-3.4658,-3.4648,-3.4655,-3.4658,-3.4658,-3.4665,-3.4682,-3.4694,-3.471,-3.4754,-3.4754,-3.4775,-3.4782,-3.4788,-3.4792,-3.4815,-3.4824,-3.4728,-3.4728,-3.4728,0,0,-3.4622,-3.4624,-3.4638,-3.4658,-3.4663,-3.4684,-3.465,-3.4674,-3.4689,-3.4661,-3.4692,-3.4693,-3.47,-3.4739,-3.4756,-3.4741,-3.4819,-3.4794,-3.4798,-3.4799,-3.482,-3.4829,-3.4837,-3.4731,-3.473,-3.473,0,0,-3.4682,-3.4687,-3.4717,-3.4723,-3.4731,-3.4726,-3.4734,-3.4737,-3.4736,-3.4768,-3.4747,-3.4766,-3.4796,-3.4802,-3.4809,-3.4873,-3.4856,-3.4879,-3.4916,-3.4938,-3.4946,-3.4952,-3.4973,-3.4981,-3.4884,-3.4884,-3.4884,0,-3.4714,-3.4745,-3.4734,-3.4759,-3.4768,-3.4746,-3.4776,-3.4782,-3.4795,-3.4801,-3.4785,-3.4823,-3.4826,-3.4865,-3.4881,-3.4889,-3.4896,-3.4877,-3.4946,-3.4952,-3.4958,-3.4978,-3.4986,-3.4887,-3.4887,-3.4886,-3.4886,0,-3.4784,-3.4807,-3.483,-3.4843,-3.4855,-3.4883,-3.4876,-3.4889,-3.4879,-3.4876,-3.4909,-3.4913,-3.4928,-3.4938,-3.4928,-3.4976,-3.4966,-3.4948,-3.4917,-3.497,-3.4988,-3.4996,-3.4891,-3.489,-3.4889,-3.4888,0,0,-3.4866,-3.4874,-3.4883,-3.4888,-3.4897,-3.4913,-3.4941,-3.4957,-3.4968,-3.4979,-3.5,-3.5027,-3.5011,-3.5019,-3.501,-3.503,-3.5079,-3.5009,-3.5009,-3.502,-3.513,-3.5142,-3.5151,-3.5069,-3.507,-3.5072,-3.5129,0,-3.4924,-3.497,-3.4961,-3.5006,-3.5026,-3.5006,-3.5029,-3.5037,-3.5035,-3.5052,-3.505,-3.5069,-3.5047,-3.5052,-3.5071,-3.5069,-3.5101,-3.5065,-3.5087,-3.5088,-3.5083,-3.5161,-3.5173,-3.5227,-3.5136,-3.5138,-3.5139,0,-3.4996,-3.501,-3.5057,-3.5062,-3.507,-3.5091,-3.5105,-3.5122,-3.5131,-3.5128,-3.5138,-3.5126,-3.5153,-3.5124,-3.516,-3.5136,-3.5145,-3.5146,-3.5148,-3.5147,-3.5114,-3.516,-3.5244,-3.5252,-3.515,-3.5149,-3.5149,0,-3.5049,-3.5079,-3.5111,-3.5117,-3.5124,-3.5139,-3.5143,-3.515,-3.5161,-3.5174,-3.518,-3.5196,-3.5204,-3.5217,-3.5209,-3.5189,-3.5246,-3.5217,-3.5243,-3.5243,-3.5253,-3.5252,-3.5338,-3.5264,-3.5264,-3.5264,-3.5263,0,-3.5112,-3.5141,-3.5134,-3.5153,-3.5185,-3.5176,-3.5208,-3.5209,-3.5216,-3.5235,-3.5219,-3.5237,-3.5227,-3.5245,-3.5239,-3.5269,-3.5273,-3.5271,-3.5269,-3.5271,-3.5271,-3.5274,-3.5269,-3.5266,-3.5265,-3.5265,-3.5264,0,-3.5175,-3.5171,-3.5204,-3.521,-3.5212,-3.5235,-3.5239,-3.5257,-3.5255,-3.5279,-3.5285,-3.5282,-3.5302,-3.5296,-3.5318,-3.5314,-3.5351,-3.5345,-3.5348,-3.5345,-3.5371,-3.5368,-3.5459,-3.547,-3.5392,-3.5393,-3.5393,0,-3.5214,-3.5236,-3.5244,-3.5256,-3.5261,-3.528,-3.5291,-3.5283,-3.5295,-3.5307,-3.5324,-3.5342,-3.5356,-3.5389,-3.5388,-3.5404,-3.5397,-3.5429,-3.5399,-3.5401,-3.5395,-3.5393,-3.5394,-3.5433,-3.5434,-3.5435,-3.5436,0,-3.5284,-3.5281,-3.5298,-3.5314,-3.5328,-3.534,-3.5351,-3.5362,-3.5355,-3.5369,-3.5389,-3.54,-3.5423,-3.5441,-3.5456,-3.546,-3.5446,-3.5445,-3.5452,-3.5453,-3.5452,-3.5451,-3.5361,-3.5442,-3.5442,-3.5441,-3.5441,-3.5441,-3.5334,-3.5352,-3.5361,-3.538,-3.5388,-3.5399,-3.5415,-3.5417,-3.5434,-3.5451,-3.5446,-3.5469,-3.5477,-3.5496,-3.5502,-3.552,-3.5507,-3.5518,-3.552,-3.5521,-3.5524,-3.5452,-3.5523,-3.5522,-3.5522,-3.5522,-3.5522,0,-3.5401,-3.5406,-3.5424,-3.544,-3.5455,-3.5443,-3.5455,-3.5468,-3.5488,-3.5498,-3.5512,-3.5535,-3.5553,-3.5555,-3.5572,-3.5586,-3.558,-3.559,-3.5588,-3.5588,-3.5534,-3.5526,-3.5595,-3.5595,-3.5595,-3.5595,-3.5594,-3.5594,-3.5438,-3.5468,-3.5467,-3.55,-3.5505,-3.5527,-3.5535,-3.5545,-3.5552,-3.5579,-3.5594,-3.5596,-3.5602,-3.5619,-3.5635,-3.5635,-3.5641,-3.5653,-3.5651,-3.56,-3.5592,-3.5585,-3.5577,-3.5655,-3.5655,-3.5703,-3.5704,-3.5704]},{"header":{"parameterUnit":"m.s-1","parameterCategory":1,"la1":30.2991,"la2":30.254,"lo1":-89.0895,"lo2":-89.0444,"dy":0.0017,"dx":0.0017,"nx":28,"ny":28,"refTime":"2025-04-23T09:00:00:Z","depth":0,"parameterNumber":3,"parameterNumberName":"V-component_of_WINDS"},"data":[0,0,0,0,0,0,0,0,0,0,0,0,0,0,0,0,0,0,0,0,0,0,0,0,0,0,0,0,0,0,0,0,0,0,0,0,0,0,0,0,0,0,0,0,0,0,0,0,0,0,0,0,0,0,0,0,0,0,3.126,3.1262,0,3.1387,3.1388,3.1389,3.1423,3.1422,3.1421,3.142,3.1544,3.1548,3.1552,0,0,0,0,0,0,0,0,0,0,0,0,0,3.1044,3.1048,3.126,3.1262,3.1263,3.1386,3.1388,3.139,3.1423,3.1422,3.1421,3.142,3.1542,3.1547,3.1552,0,0,0,0,0,0,0,0,0,0,0,0,0,3.1151,3.105,3.126,3.1295,3.1299,3.1386,3.1388,3.139,3.1423,3.1422,3.1421,3.142,3.1541,3.1547,3.1553,3.1612,0,0,3.1571,3.1573,0,0,0,0,0,0,0,0,3.1145,3.1159,3.1288,3.1293,3.1298,3.1388,3.1357,3.1464,3.1423,3.1376,3.142,3.1419,3.1492,3.1502,3.1528,3.1618,3.1623,3.1571,3.1575,3.1578,3.1579,0,0,0,0,0,0,0,3.1137,3.1154,3.131,3.129,3.1296,3.1303,3.1317,3.1378,3.1439,3.138,3.1383,3.1397,3.1495,3.1522,3.1531,3.1625,3.1571,3.1576,3.158,3.1582,3.1773,3.1774,0,0,0,0,0,0,3.1125,3.1147,3.1306,3.1314,3.1217,3.1308,3.1323,3.136,3.1438,3.1449,3.1398,3.1398,3.1513,3.1524,3.1536,3.1613,3.1577,3.1583,3.1587,3.1771,3.1773,3.1775,0,0,0,0,0,0,3.112,3.1139,3.1301,3.1232,3.1253,3.1313,3.1354,3.1363,3.1391,3.1452,3.1463,3.1416,3.1512,3.1527,3.1594,3.1618,3.1586,3.1591,3.177,3.1772,3.1774,3.1767,0,0,0,0,0,0,3.1114,3.1137,3.116,3.1232,3.1256,3.1358,3.1355,3.1366,3.1402,3.1403,3.1471,3.1481,3.1513,3.1585,3.16,3.1626,3.1596,3.1768,3.1771,3.1773,3.1765,3.1769,3.1771,0,0,0,0,0,3.1106,3.1151,3.1161,3.118,3.1288,3.1359,3.1373,3.141,3.1403,3.1428,3.1468,3.1479,3.1613,3.1591,3.1609,3.1636,3.1766,3.177,3.1773,3.1764,3.1768,3.1771,0,0,0,0,0,0,3.1078,3.1161,3.1173,3.1243,3.1295,3.1365,3.1396,3.1413,3.1465,3.1464,3.1505,3.152,3.1585,3.1617,3.1592,3.17,3.169,3.1696,3.1677,3.1681,3.1684,3.1676,3.1601,0,0,0,0,0,3.1081,3.1134,3.1202,3.1258,3.1283,3.1335,3.1368,3.1392,3.1446,3.1467,3.1511,3.1562,3.1616,3.165,3.1702,3.177,3.1786,3.1798,3.1801,3.1803,3.1809,3.185,3.1857,3.1786,3.1786,3.1786,0,0,3.1085,3.1137,3.1168,3.1254,3.1296,3.135,3.1353,3.1408,3.1449,3.1475,3.1542,3.1576,3.1635,3.1704,3.1736,3.1732,3.1832,3.1807,3.1808,3.1813,3.1854,3.1861,3.1867,3.1788,3.1788,3.1787,0,0,3.1122,3.1166,3.1219,3.1262,3.1328,3.1363,3.1375,3.1444,3.1469,3.1538,3.156,3.1607,3.1698,3.174,3.1773,3.183,3.1843,3.1845,3.1862,3.1901,3.1907,3.1912,3.1935,3.1942,3.1851,3.1851,3.1851,0,3.1119,3.1203,3.1243,3.1299,3.1337,3.1366,3.142,3.146,3.1538,3.1563,3.1558,3.1676,3.1717,3.1797,3.1812,3.1837,3.1853,3.1838,3.1903,3.1909,3.1914,3.1936,3.1944,3.1851,3.1851,3.1851,3.1851,0,3.1197,3.1255,3.1289,3.1368,3.1409,3.1463,3.1512,3.1549,3.157,3.1606,3.1676,3.1727,3.1792,3.1813,3.1832,3.1897,3.1893,3.1895,3.1886,3.1921,3.1942,3.195,3.1851,3.1851,3.1851,3.1851,0,0,3.1219,3.1322,3.1334,3.1372,3.1448,3.1492,3.1548,3.1615,3.1647,3.1699,3.1749,3.1826,3.183,3.1868,3.1893,3.1927,3.1973,3.1926,3.1928,3.1935,3.205,3.2049,3.2058,3.1982,3.1983,3.1985,3.2045,0,3.1267,3.1371,3.1411,3.1496,3.155,3.158,3.1629,3.1681,3.1716,3.1766,3.1804,3.186,3.1859,3.1883,3.1918,3.196,3.1996,3.1955,3.2028,3.203,3.2014,3.2069,3.2068,3.2123,3.2054,3.2055,3.2056,0,3.1337,3.1395,3.1486,3.1559,3.1583,3.1627,3.1693,3.174,3.18,3.1823,3.1867,3.1891,3.1951,3.1938,3.2022,3.1993,3.2025,3.205,3.2053,3.2062,3.2046,3.2082,3.2141,3.215,3.2069,3.2068,3.2067,0,3.1347,3.1448,3.1516,3.1547,3.1632,3.1663,3.1699,3.1758,3.1796,3.1853,3.1879,3.194,3.1974,3.2021,3.2061,3.2047,3.2143,3.2132,3.2164,3.2163,3.2183,3.2182,3.2251,3.2201,3.22,3.22,3.22,0,3.1398,3.1453,3.1523,3.1565,3.1628,3.1673,3.1734,3.1772,3.1824,3.1874,3.1902,3.1948,3.1997,3.2049,3.208,3.2147,3.2161,3.2182,3.219,3.2181,3.2178,3.2203,3.2201,3.2203,3.2202,3.2202,3.2201,0,3.142,3.1469,3.1546,3.1622,3.1642,3.1686,3.175,3.1792,3.183,3.1893,3.191,3.1968,3.2031,3.2076,3.2156,3.2177,3.225,3.2256,3.2231,3.2235,3.2266,3.2263,3.2354,3.2369,3.2307,3.2308,3.2308,0,3.145,3.1494,3.1576,3.1613,3.1651,3.1709,3.175,3.1795,3.1836,3.1909,3.1943,3.2009,3.2064,3.2164,3.2213,3.2275,3.2284,3.2312,3.2294,3.2284,3.2288,3.2286,3.2291,3.2315,3.2316,3.2316,3.2316,0,3.15,3.1523,3.1581,3.1649,3.1698,3.1752,3.1807,3.1836,3.1891,3.1935,3.2003,3.2046,3.213,3.2196,3.2264,3.23,3.2318,3.2322,3.2333,3.2325,3.231,3.2321,3.2241,3.232,3.2319,3.2319,3.2319,3.2319,3.1529,3.157,3.1636,3.1701,3.1748,3.18,3.1844,3.1889,3.1946,3.202,3.2043,3.2113,3.2173,3.2267,3.2305,3.236,3.2358,3.2373,3.2378,3.2381,3.2383,3.23,3.2372,3.2372,3.2372,3.2372,3.2372,0,3.1582,3.1626,3.1686,3.1764,3.1815,3.183,3.1892,3.1934,3.1996,3.2052,3.2107,3.2186,3.225,3.2305,3.2372,3.2405,3.2416,3.2422,3.242,3.2429,3.2379,3.2364,3.2413,3.2413,3.2413,3.2413,3.2413,3.2413,3.1615,3.1688,3.1719,3.1816,3.1859,3.193,3.1965,3.2013,3.2059,3.2146,3.2201,3.2237,3.2293,3.2364,3.2425,3.2439,3.2463,3.2468,3.2484,3.2437,3.2432,3.2428,3.2414,3.2472,3.2472,3.253,3.2531,3.2531]}]]